Regional Weather Roundup
Issued by NWS

Home | Current Version | Previous Version | Graphics & Text | Print | Product List | Glossary On
Versions: 1 2 3 4 5 6 7 8 9 10 11 12 13 14 15 16 17 18 19 20 21 22 23 24 25 26 27 28 29 30 31 32 33 34 35 36 37 38 39 40 41 42 43 44 45 46 47 48 49 50
000
ASUS43 KDMX 281203
RWRIA

WEATHER ROUNDUP FOR IOWA
NATIONAL WEATHER SERVICE DES MOINES IA
700 AM CDT THU APR 28 2016

NOTE: "FAIR" INDICATES FEW OR NO CLOUDS BELOW 12,000 FEET WITH NO
SIGNIFICANT WEATHER AND/OR OBSTRUCTIONS TO VISIBILITY.

* - THESE STATIONS ARE NOT NWS STATIONS...THUS NOT UNDER NWS
QUALITY CONTROL.  THEY ALSO DO NOT REPORT WEATHER SUCH
AS PRECIPITATION OR FOG.

IAZ001>003-012>014-020>022-031>034-043>046-281300-
   NORTHWEST IOWA

CITY           SKY/WX    TMP DP  RH WIND       PRES   REMARKS
CARROLL *      CLOUDY    46  46 100 SW8       29.72R FOG
CHEROKEE *     RAIN      41  41 100 NE10      29.77R
DENISON *      CLOUDY    45  45 100 N8        29.72R FOG
LE MARS *      CLOUDY    43  41  93 NE10      29.82R
ORANGE CITY *  DRIZZLE   39  39 100 NE7       29.80R WCI  34
SHELDON *      CLOUDY    39  39 100 NE17      29.80R WCI  30
SIOUX CITY     CLOUDY    44  41  89 NW9       29.81R FOG
6HR MIN TEMP:  44; 6HR MAX TEMP:  45; 6HR PCP:  0.03;

SPENCER        LGT RAIN  39  36  89 NE17      29.80R FOG     WCI  30
6HR MIN TEMP:  39; 6HR MAX TEMP:  41; 6HR PCP:  0.15;

STORM LAKE *   CLOUDY    43  41  93 NE16      29.75S FOG
$$

IAZ055>058-069>071-079>083-090>094-281300-
   SOUTHWEST IOWA

CITY           SKY/WX    TMP DP  RH WIND       PRES   REMARKS
ATLANTIC *     CLOUDY    45  43  93 CALM      29.74R
AUDUBON *      MOCLDY    45  43  93 CALM      29.74R
CLARINDA *       N/A    N/A N/A N/A MISG        N/A
COUNCIL BLFS * CLOUDY    45  45 100 NW6       29.76R FOG
CRESTON *      FOG       45  45 100 NW8       29.75R VSB 3/4
HARLAN  *      CLOUDY    45  45 100 W12       29.77R
LAMONI         CLOUDY    46  43  89 W12       29.75R
6HR MIN TEMP:  45; 6HR MAX TEMP:  48;

RED OAK *      CLOUDY    46  46 100 CALM      29.75R FOG
SHENANDOAH *   CLOUDY    48  48 100 W12       29.77R
$$

IAZ047>049-059>061-072>074-084-281300-
   CENTRAL IOWA

CITY           SKY/WX    TMP DP  RH WIND       PRES   REMARKS
AMES           CLOUDY    47  44  90 E3        29.75R
6HR MIN TEMP:  44; 6HR MAX TEMP:  48; 6HR PCP: TRACE;

ANKENY *       CLOUDY    46  46 100 CALM      29.74R
BOONE *        CLOUDY    46  45  93 E5        29.73R
CHARITON *     CLOUDY    46  45  93 S8        29.74R
DES MOINES     CLOUDY    47  43  86 NE6       29.74R
6HR MIN TEMP:  46; 6HR MAX TEMP:  50; 6HR PCP: TRACE;

GRINNELL*      FOG       48  47  97 E5        29.74R VSB 1/2
KNOXVILLE *    CLOUDY    48  43  81 W7        29.73R
MARSHALLTOWN   CLOUDY    46  45  96 E12       29.74R FOG
6HR MIN TEMP:  46; 6HR MAX TEMP:  48; 6HR PCP:  0.04;

NEWTON *         N/A     48  48 100 NW7       29.73R
PELLA *        CLOUDY    48  44  84 W5        29.75R
$$

IAZ004>006-015-016-023>025-035-036-281300-
   NORTH CENTRAL IOWA

CITY           SKY/WX    TMP DP  RH WIND       PRES   REMARKS
ALGONA *       CLOUDY    41  39  93 E13G21    29.78R
CLARION *      CLOUDY    43  43 100 E16G22    29.76R
ESTHERVILLE    CLOUDY    37  36  96 NE17      29.81R WCI  27
6HR MIN TEMP:  37; 6HR MAX TEMP:  40; 6HR PCP:  0.16;

FORT DODGE *   CLOUDY    45  39  81 E12       29.75R
MASON CITY     CLOUDY    40  37  89 E14       29.81R WCI  32
6HR MIN TEMP:  39; 6HR MAX TEMP:  42; 6HR PCP: TRACE;

FOREST CITY *  CLOUDY    37  36  93 E10       29.80R WCI  30
WEBSTER CITY * CLOUDY    45  45 100 E15       29.73R FOG
IOWA FALLS *   CLOUDY    45  43  93 NE10      29.76R FOG
$$

IAZ007>011-017>019-026>030-037>042-050>054-066-281300-
   NORTHEAST IOWA

CITY           SKY/WX    TMP DP  RH WIND       PRES   REMARKS
CEDAR RAPIDS   CLOUDY    47  47 100 E13       29.75R FOG
6HR MIN TEMP:  45; 6HR MAX TEMP:  48;

CHARLES CITY * CLOUDY    39  39 100 NE13      29.81S FOG     WCI  32
CLINTON *      CLOUDY    47  45  93 E12       29.80R FOG
DECORAH *      CLOUDY    39  37  93 E10       29.82R WCI  32
DUBUQUE        CLOUDY    44  42  93 E17       29.80R
6HR MIN TEMP:  43; 6HR MAX TEMP:  44; 6HR PCP:  0.04;

MONTICELLO *   CLOUDY    46  43  87 E9        29.79R FOG
OELWEIN *      CLOUDY    43  43 100 E14       29.79R
WATERLOO       CLOUDY    44  41  89 E15G22    29.77R
6HR MIN TEMP:  44; 6HR MAX TEMP:  45;

$$

IAZ064-065-067-068-078-281300-
   EAST CENTRAL IOWA

CITY           SKY/WX    TMP DP  RH WIND       PRES   REMARKS
DAVENPORT      CLOUDY    50  48  93 E7        29.78R FOG
6HR MIN TEMP:  47; 6HR MAX TEMP:  50; 6HR PCP: TRACE;

IOWA CITY      CLOUDY    49  47  93 NE8       29.77R FOG
6HR MIN TEMP:  49; 6HR MAX TEMP:  50;

MT. PLEASANT * FOG       50  50 100 CALM      29.75R VSB 1/4
MUSCATINE *    CLOUDY    50  48  93 CALM      29.77R FOG
QUAD CITIES    CLOUDY    51  48  89 E10       29.78R FOG
6HR MIN TEMP:  46; 6HR MAX TEMP:  52; 6HR PCP:  0.01;

$$

IAZ062-063-075>077-085>089-095>099-281300-
   SOUTHEAST IOWA

CITY           SKY/WX    TMP DP  RH WIND       PRES   REMARKS
BURLINGTON     MOCLDY    50  50 100 S7        29.75R FOG
6HR MIN TEMP:  47; 6HR MAX TEMP:  52;

FAIRFIELD *    CLOUDY    48  48 100 SW6       29.75R
FORT MADISON * MOCLDY    50  50 100 S5        29.76R
KEOKUK *       CLOUDY    52  52 100 S5        29.75R
OSKALOOSA *    CLOUDY    48  45  87 SW5       29.74R
OTTUMWA        CLOUDY    48  45  89 SW6       29.74R
6HR MIN TEMP:  45; 6HR MAX TEMP:  50;

WASHINGTON *   FOG       50  50 100 E7        29.76R VSB 0
$$

ABBREVIATIONS USED IN REMARKS
   TC - TEMPERATURES IN CELSIUS
  WCI - WIND CHILL INDEX
   HX - HEAT INDEX
  VSB - VISIBILITY
$$





USA.gov is the U.S. government's official web portal to all federal, state and local government web resources and services.